Location: Rometta
(44.2000°N, 10.0500°E)
Time: 10:07:37
(UTC+00:00)

Cosmos 1818 - Pass Details

Date: 21 May 2021
Orbit: 771 x 802 km, 65.0° (Epoch: 15 June)

Event Time Altitude Azimuth Distance (km) Brightness Sun altitude
Rises 20:33:07 0° 320° (NW) 3,319 8.7 -15.4°
Reaches altitude 10° 20:35:40 10° 313° (NW) 2,384 7.4 -15.7°
Maximum altitude 20:40:48 42° 244° (WSW) 1,125 4.4 -16.3°
Enters shadow 20:44:20 19° 183° (S) 1,826 5.0 -16.7°
